Showing default

IRIS-F2, 62684

Orbit data source: Space-Track

IRIS-F2, 62684 is a payload satellite owned by NCKU (TW) in SSO that was launched on Tue, 14 Jan 2025 UTC via an FALCON 9 launch vehicle from the Air Force Western Test Range (AFWTR). Payload-class satellites include a variety of spacecraft equipped with specific instruments for various scientific and technological missions. These include communications satellites like Starlink; space stations such as the ISS; scientific satellites like the Hubble; Earth observation satellites from companies like Planet Labs, Umbra, and HawkEye 360; GPS; miniature CubeSats for education and research; and military/defense satellites.

Loading next visibility...
Identifier
62684, 2025-009CD
Orbit
SSO
Country
Flag of TWTW / TWN
Related business
Manufacturer
NCKU
Mission
Operational Amateur Technology
Bus & Motor
CUBESAT 3U, Unknown motor
Mass
4 kg wet, 4 kg dry
Launch date (UTC)
2025-01-14 (1 year ago)
Launch vehicle
FALCON 9
Launch site
Air Force Western Test Range (AFWTR)
Object type
Payload
Rocket body
Debris
Shape & HBR
Box, 0.4 m
Radar Cross Section
0.035 m², Medium (>0.1 m² and < 1m²)

Expand to show TLE details & history
Last TLE update: 8 hours ago

TLE from 8 hours ago
0 IRIS-F2
1 62684U 25009CD  26126.17275897  .00014210  00000-0  55787-3 0  9998
2 62684  97.3889 206.4203 0006705 130.8667 229.3154 15.25802713130057
Epoch: 2026-05-06T04:08Z
TLE epoch observation values (Epoch: 2026-05-06T04:08:46.375Z)
Latitude
0.00007°
Longitude
-79.81°
Altitude
494.479 km
Speed
7.616 km/s
True Right ascension
13h 45m 40s
True Declination
0° 00' 00"
Sunlit
Object was in full shadow at epoch
Visualization orbit readout
Latitude
Unknown
Longitude
Unknown
Altitude
Unknown
Speed
Unknown
Apparent Right ascension
Unknown
Apparent Declination
Unknown
Sunlit
N/A
Visualization observer readout
Local Sidereal Time
20:30:05
Azimuth
Unknown
Elevation
Unknown
Doppler factor
Unknown
Orbital elements
Apogee altitude
489.935 km
Perigee altitude
480.732 km
Semi-major axis
6,863.47 km
Eccentricity
0.00067
Inclination
97.3889°
RAAN
206.4203°
Arg. of periapsis
130.8667°
True anomaly
229.25717°
Mean anomaly
229.3154°
Eccentric anomaly
229.28628°
Mean motion
3.81705 °/min
Orbital period
94.31 mins
BSTAR
0.00055787
Loading maneuver chart data...
Computing Atmospheric mass density...
Loading historical data...
Loading historical data...
Loading historical data...
Loading historical data...
Loading historical data...
Loading historical data...
Loading historical data...

Documentation

Showing up to 5 results
|